Temp
-6 -6 -6 -6 -6 -6 -6 -6 -7 -7 -7 -7 -7 -7 -7 -7 -7 -7 -7 -7 -7 -7 -8 -8 -8 -8 -8 -8 -8 -8 -9 -9 -10 -10 -9 -9 -9 -9 -9 -9 -9 -9 -9
-6 -6 -6 -6 -6 -6 -7 -7 -7 -7 -7 -8 -8 -8 -7 -7 -7 -8 -8 -8 -8 -8 -8 -8 -8 -8 -8 -8 -8 -8 -9 -9 -9 -9 -9 -9 -9 -9 -9 -9 -9 -9 -9
-6 -6 -6 -6 -6 -6 -7 -7 -7 -7 -8 -8 -8 -8 -8 -8 -8 -8 -8 -7 -8 -8 -8 -8 -8 -8 -8 -8 -8 -9 -9 -9 -9 -10 -9 -9 -9 -9 -9 -9 -9 -9 -9
-6 -6 -6 -6 -6 -7 -7 -7 -7 -7 -8 -7 -8 -8 -8 -8 -8 -8 -8 -8 -8 -8 -8 -8 -8 -8 -8 -8 -8 -8 -9 -9 -9 -9 -9 -9 -9 -9 -9 -9 -9 -9 -9
-6 -6 -6 -6 -6 -7 -7 -7 -7 -7 -8 -8 -8 -8 -8 -8 -8 -8 -8 -8 -8 -8 -8 -8 -8 -8 -8 -9 -9 -8 -8 -8 -9 -9 -9 -9 -9 -9 -9 -9 -9 -9 -9
-6 -6 -6 -6 -6 -6 -7 -7 -7 -7 -7 -8 -8 -8 -8 -8 -7 -8 -8 -8 -8 -8 -8 -8 -8 -8 -8 -8 -8 -8 -8 -8 -9 -9 -9 -9 -9 -9 -9 -9 -9 -9 -9
-6 -6 -6 -6 -6 -7 -7 -7 -7 -7 -7 -8 -8 -8 -7 -7 -7 -8 -8 -7 -7 -7 -7 -8 -8 -8 -8 -8 -8 -8 -8 -9 -9 -9 -9 -10 -9 -9 -9 -9 -9 -9 -9
-6 -6 -6 -6 -6 -7 -7 -7 -7 -7 -7 -8 -7 -7 -7 -7 -7 -7 -7 -7 -6 -7 -7 -7 -7 -7 -8 -8 -8 -8 -9 -9 -9 -9 -9 -10 -9 -9 -9 -9 -9 -9 -9
-6 -6 -6 -6 -6 -7 -7 -7 -7 -7 -7 -7 -7 -7 -7 -7 -7 -7 -7 -7 -7 -7 -7 -7 -7 -8 -8 -8 -8 -8 -9 -9 -9 -9 -9 -9 -9 -9 -9 -9 -9 -9 -9
-6 -6 -6 -6 -7 -7 -7 -7 -7 -7 -7 -7 -7 -7 -7 -7 -7 -6 -6 -6 -7 -7 -7 -7 -7 -8 -8 -8 -8 -8 -9 -9 -9 -9 -9 -9 -9 -9 -9 -10 -9 -9 -9
-6 -6 -6 -6 -7 -7 -7 -7 -7 -6 -7 -6 -7 -7 -7 -6 -6 -6 -6 -6 -6 -7 -7 -7 -7 -7 -7 -7 -8 -8 -8 -9 -9 -9 -9 -9 -9 -10 -10 -10 -10 -9 -9
-6 -6 -6 -6 -7 -7 -7 -7 -6 -6 -6 -6 -7 -7 -7 -6 -7 -6 -6 -6 -6 -6 -6 -6 -6 -6 -7 -7 -8 -8 -8 -8 -9 -9 -9 -9 -9 -9 -9 -9 -9 -9 -10
-6 -6 -6 -7 -7 -6 -7 -6 -6 -6 -6 -6 -7 -7 -6 -6 -6 -6 -6 -6 -6 -6 -6 -6 -8 -7 -7 -7 -7 -7 -8 -8 -8 -8 -8 -9 -9 -9 -9 -9 -9 -9 -9
-5 -6 -6 -7 -7 -6 -6 -6 -6 -6 -6 -7 -7 -6 -7 -6 -6 -6 -6 -6 -6 -7 -7 -7 -7 -7 -7 -8 -7 -7 -8 -8 -8 -8 -8 -8 -8 -9 -9 -9 -9 -9 -9
-5 -6 -6 -6 -7 -6 -6 -6 -6 -6 -6 -7 -7 -6 -6 -6 -6 -6 -6 -6 -6 -6 -6 -7 -7 -7 -7 -7 -7 -7 -7 -7 -7 -7 -8 -8 -8 -8 -8 -8 -8 -8 -8
-5 -6 -6 -6 -6 -6 -6 -6 -6 -6 -6 -6 -7 -7 -7 -7 -6 -6 -6 -7 -7 -6 -7 -7 -7 -7 -7 -7 -7 -7 -7 -7 -8 -8 -8 -8 -8 -8 -8 -8 -8 -8 -8
-5 -5 -6 -5 -5 -6 -6 -6 -6 -6 -6 -6 -6 -7 -6 -6 -6 -6 -6 -7 -7 -7 -7 -7 -7 -7 -7 -7 -7 -7 -7 -7 -7 -8 -8 -8 -8 -8 -8 -8 -8 -8 -8
-5 -5 -5 -5 -5 -6 -6 -6 -6 -6 -6 -7 -6 -6 -6 -6 -7 -7 -7 -7 -7 -7 -7 -6 -6 -6 -7 -7 -7 -7 -7 -7 -7 -7 -7 -8 -8 -8 -8 -8 -8 -7 -7
-5 -5 -5 -5 -5 -6 -6 -6 -6 -6 -6 -6 -6 -6 -6 -6 -7 -6 -6 -6 -7 -7 -7 -7 -6 -6 -7 -7 -7 -7 -7 -7 -7 -7 -7 -7 -7 -7 -7 -7 -7 -7 -7
-5 -5 -5 -5 -5 -5 -6 -6 -6 -6 -6 -6 -6 -7 -7 -6 -6 -6 -6 -6 -6 -6 -6 -6 -6 -6 -6 -6 -6 -6 -6 -7 -7 -7 -7 -7 -7 -7 -7 -7 -7 -7 -7
-5 -5 -5 -5 -5 -6 -6 -6 -6 -6 -7 -6 -6 -6 -6 -6 -6 -6 -6 -6 -6 -6 -6 -6 -6 -6 -6 -6 -6 -6 -7 -6 -6 -7 -7 -7 -7 -7 -7 -7 -7 -7 -7
-6 -5 -5 -5 -5 -5 -5 -5 -5 -6 -6 -6 -6 -6 -6 -6 -6 -6 -5 -5 -5 -6 -6 -6 -6 -6 -6 -6 -6 -6 -6 -7 -6 -6 -6 -7 -7 -7 -7 -7 -7 -7 -7
-6 -6 -6 -5 -5 -5 -5 -5 -5 -6 -6 -6 -6 -6 -6 -6 -5 -5 -5 -5 -5 -5 -5 -5 -5 -6 -6 -6 -5 -6 -6 -6 -6 -6 -6 -7 -6 -7 -7 -7 -7 -7 -7
-6 -6 -5 -5 -5 -5 -5 -5 -5 -5 -5 -5 -5 -5 -6 -6 -5 -5 -5 -5 -5 -5 -5 -5 -5 -5 -5 -5 -5 -6 -6 -6 -6 -6 -6 -6 -6 -6 -7 -7 -7 -7 -7
-6 -6 -5 -5 -5 -5 -5 -5 -5 -5 -5 -5 -5 -5 -5 -5 -5 -5 -5 -5 -5 -5 -5 -5 -5 -5 -5 -5 -5 -6 -6 -6 -6 -6 -6 -6 -6 -6 -7 -7 -7 -7 -8
-5 -5 -5 -5 -5 -5 -5 -5 -5 -5 -5 -5 -5 -5 -5 -5 -5 -5 -5 -5 -5 -5 -5 -5 -5 -5 -5 -5 -5 -6 -6 -6 -6 -6 -6 -6 -6 -7 -7 -7 -8 -8 -8
Height
5894 5893 5894 5894 5894 5895 5895 5895 5895 5896 5896 5897 5897 5898 5899 5900 5900 5900 5900 5900 5900 5900 5900 5900 5900 5900 5900 5899 5899 5900 5900 5901 5902 5903 5904 5905 5906 5906 5906 5905 5905 5905 5904
5895 5895 5895 5896 5896 5897 5897 5897 5897 5898 5898 5898 5899 5899 5901 5901 5902 5902 5902 5901 5902 5902 5901 5901 5901 5900 5900 5900 5900 5901 5902 5902 5903 5905 5906 5907 5907 5908 5908 5908 5907 5907 5907
5897 5896 5896 5898 5899 5899 5899 5899 5899 5900 5900 5900 5900 5901 5902 5902 5902 5902 5902 5902 5903 5903 5902 5901 5901 5901 5902 5902 5902 5902 5902 5903 5905 5904 5907 5908 5908 5909 5909 5909 5909 5909 5908
5898 5897 5898 5899 5900 5901 5901 5901 5901 5901 5902 5902 5902 5903 5904 5904 5903 5903 5903 5902 5902 5902 5902 5902 5902 5902 5903 5903 5904 5904 5904 5904 5906 5907 5909 5910 5910 5911 5911 5911 5911 5910 5910
5899 5899 5900 5901 5902 5903 5903 5903 5903 5903 5903 5904 5904 5905 5905 5905 5905 5905 5904 5904 5903 5903 5903 5903 5903 5904 5904 5905 5905 5906 5906 5907 5908 5910 5911 5911 5913 5913 5913 5913 5912 5912 5911
5900 5901 5902 5903 5904 5904 5903 5904 5905 5905 5905 5906 5907 5908 5908 5908 5908 5907 5906 5905 5904 5903 5904 5904 5905 5906 5907 5907 5907 5907 5908 5909 5911 5912 5913 5914 5914 5915 5915 5914 5914 5913 5913
5901 5902 5903 5904 5905 5906 5905 5906 5907 5908 5908 5909 5909 5911 5911 5910 5910 5909 5908 5907 5906 5906 5906 5907 5908 5910 5910 5910 5910 5910 5911 5913 5914 5915 5915 5915 5916 5917 5917 5916 5915 5915 5915
5902 5903 5904 5906 5907 5907 5906 5907 5909 5910 5910 5911 5913 5914 5914 5913 5913 5913 5912 5911 5910 5909 5910 5911 5913 5914 5913 5913 5913 5913 5915 5916 5916 5917 5917 5918 5918 5918 5918 5917 5917 5917 5917
5904 5904 5906 5907 5908 5908 5909 5910 5911 5912 5913 5915 5917 5917 5917 5917 5916 5916 5916 5915 5914 5914 5915 5915 5916 5917 5917 5916 5917 5917 5919 5919 5919 5919 5919 5919 5919 5919 5919 5919 5919 5919 5919
5904 5905 5907 5908 5909 5910 5911 5912 5914 5915 5917 5918 5920 5919 5920 5920 5920 5920 5919 5918 5919 5920 5920 5919 5920 5920 5920 5920 5919 5921 5922 5921 5919 5920 5921 5921 5921 5921 5921 5920 5920 5919 5919
5905 5906 5908 5909 5910 5912 5913 5914 5917 5918 5920 5922 5922 5922 5923 5923 5922 5923 5924 5924 5923 5923 5924 5923 5924 5924 5924 5923 5923 5924 5923 5921 5922 5923 5922 5923 5923 5922 5922 5922 5921 5921 5920
5906 5907 5910 5911 5913 5914 5916 5917 5919 5920 5922 5923 5924 5925 5926 5925 5925 5926 5927 5928 5927 5927 5927 5928 5923 5901 5928 5927 5926 5926 5925 5925 5925 5925 5924 5924 5924 5925 5924 5923 5923 5923 5922
5907 5909 5911 5912 5914 5916 5918 5920 5921 5923 5924 5926 5926 5927 5928 5928 5928 5929 5929 5930 5930 5930 5930 5930 5931 5930 5929 5930 5928 5928 5927 5928 5928 5927 5927 5926 5926 5927 5926 5926 5926 5925 5925
5908 5910 5912 5914 5916 5918 5920 5922 5923 5925 5926 5927 5928 5929 5930 5931 5931 5931 5932 5932 5932 5933 5931 5932 5933 5932 5932 5933 5931 5929 5931 5930 5930 5929 5929 5928 5929 5929 5929 5929 5928 5928 5929
5909 5911 5913 5914 5917 5919 5921 5923 5925 5927 5928 5929 5930 5932 5932 5932 5932 5932 5933 5934 5934 5934 5934 5934 5934 5934 5934 5933 5933 5933 5933 5932 5932 5932 5932 5932 5932 5932 5932 5932 5932 5931 5932
5910 5912 5914 5916 5918 5920 5923 5925 5927 5929 5929 5930 5932 5933 5933 5934 5934 5933 5934 5935 5935 5935 5937 5936 5936 5936 5935 5935 5935 5935 5934 5934 5935 5934 5934 5935 5935 5935 5935 5935 5935 5935 5935
5911 5913 5914 5916 5919 5922 5924 5926 5928 5930 5931 5932 5933 5934 5935 5935 5935 5935 5935 5934 5936 5936 5937 5936 5937 5938 5937 5937 5937 5937 5936 5936 5937 5936 5937 5938 5938 5937 5937 5937 5938 5938 5938
5912 5914 5915 5917 5920 5923 5925 5928 5930 5931 5932 5934 5934 5935 5936 5936 5936 5936 5936 5936 5937 5937 5938 5937 5939 5940 5939 5939 5939 5939 5939 5939 5939 5939 5939 5939 5940 5940 5940 5940 5940 5940 5941
5912 5914 5916 5918 5921 5924 5926 5928 5931 5932 5934 5935 5936 5937 5937 5938 5937 5938 5938 5939 5937 5939 5939 5939 5940 5941 5941 5941 5941 5942 5941 5941 5942 5941 5941 5941 5941 5942 5943 5942 5943 5944 5944
5912 5914 5916 5919 5922 5924 5927 5929 5932 5933 5935 5936 5938 5939 5939 5939 5939 5940 5940 5940 5941 5941 5942 5942 5942 5943 5943 5944 5944 5945 5944 5944 5944 5944 5944 5944 5944 5945 5945 5946 5947 5947 5947
5911 5914 5917 5920 5923 5925 5928 5930 5932 5934 5936 5936 5939 5940 5941 5942 5942 5942 5944 5942 5944 5944 5944 5944 5945 5945 5945 5946 5947 5947 5947 5947 5946 5947 5946 5947 5948 5949 5949 5950 5950 5950 5950
5910 5913 5916 5920 5923 5926 5928 5929 5932 5935 5937 5938 5940 5942 5943 5943 5943 5944 5945 5946 5946 5946 5947 5948 5948 5947 5947 5948 5949 5948 5949 5949 5948 5949 5950 5951 5952 5953 5953 5953 5954 5953 5953
5910 5912 5915 5919 5922 5926 5928 5931 5933 5935 5937 5939 5941 5943 5944 5944 5945 5946 5947 5949 5949 5950 5950 5950 5950 5949 5950 5950 5951 5950 5951 5951 5950 5951 5954 5955 5956 5956 5956 5956 5956 5957 5957
5908 5910 5913 5917 5921 5925 5928 5931 5933 5935 5937 5939 5942 5943 5944 5946 5947 5948 5949 5950 5951 5952 5952 5952 5952 5951 5951 5952 5953 5953 5953 5953 5954 5955 5956 5957 5959 5959 5960 5960 5960 5960 5959
5904 5908 5912 5915 5919 5923 5927 5930 5933 5935 5938 5940 5942 5944 5945 5947 5948 5949 5951 5953 5953 5954 5954 5954 5954 5953 5954 5954 5954 5955 5955 5957 5957 5958 5959 5961 5961 5962 5963 5963 5963 5963 5962
5902 5906 5910 5914 5917 5921 5925 5929 5932 5934 5938 5940 5942 5944 5946 5948 5950 5952 5953 5953 5954 5955 5956 5956 5956 5955 5956 5956 5956 5957 5958 5959 5960 5960 5961 5963 5964 5965 5965 5965 5965 5964 5963
Wind_Speed
7 7 8 10 13 13 12 13 14 14 15 15 17 17 16 15 13 11 10 9 8 7 7 7 7 8 7 5 4 2 3 5 7 6 7 9 9 9 9 8 7 8 8
7 7 8 9 13 12 12 14 14 14 16 17 17 16 15 13 12 11 10 8 7 6 5 5 6 6 6 5 4 4 4 4 9 8 9 10 8 7 7 8 8 7 7
7 7 8 9 12 12 12 14 14 15 17 18 16 14 13 11 10 8 7 6 5 4 4 4 4 5 4 4 6 8 5 5 6 11 9 10 8 7 6 7 8 7 7
7 8 8 10 11 11 12 14 14 14 15 15 14 13 11 9 7 8 8 7 6 5 5 5 4 4 4 5 6 4 9 9 6 8 10 10 9 5 5 6 6 7 7
6 7 8 10 10 10 12 13 13 13 13 12 10 10 9 9 9 9 8 6 4 4 5 5 6 7 8 6 5 5 5 8 9 11 12 11 10 5 5 5 6 7 8
6 7 8 10 10 10 12 13 13 12 10 9 9 10 11 11 11 10 9 6 5 6 6 8 10 11 10 9 7 8 8 8 10 10 12 9 7 5 4 5 6 6 8
7 7 8 10 9 10 11 12 13 12 10 9 10 12 13 13 14 13 11 13 12 13 13 15 16 14 14 13 12 12 12 12 11 9 9 9 5 4 3 5 6 6 7
7 8 9 10 9 10 11 12 12 11 10 11 12 15 13 14 15 16 18 18 18 18 19 19 17 15 15 14 14 12 12 11 9 8 6 6 4 3 3 4 5 5 5
7 8 9 9 9 10 11 13 13 12 12 13 15 16 13 14 16 17 19 19 19 21 20 18 16 13 13 13 13 12 11 9 7 6 5 4 4 4 5 4 5 5 5
8 8 8 9 10 10 12 14 13 13 15 15 16 15 14 18 19 20 20 19 17 21 19 17 16 14 14 14 13 11 9 7 6 6 5 5 4 4 5 5 6 5 3
9 9 8 9 9 11 14 15 15 16 16 16 14 13 15 16 15 17 17 17 16 17 17 17 17 15 13 11 11 10 10 7 10 8 6 6 5 5 6 6 6 5 5
11 10 9 10 10 14 16 16 17 17 15 15 14 13 14 15 13 13 13 12 11 13 13 14 13 16 9 10 11 9 10 9 12 12 10 9 8 9 8 10 10 10 10
12 11 10 12 13 16 17 18 18 16 16 16 15 14 14 13 11 10 9 10 9 8 9 10 11 10 9 7 10 9 10 11 11 13 14 13 13 12 11 11 11 11 12
13 12 13 14 16 18 18 18 17 16 16 16 15 14 13 12 11 8 8 7 8 5 7 6 8 8 9 8 9 9 10 10 11 12 13 14 15 14 15 15 13 12 14
13 14 15 15 19 20 19 18 17 17 14 12 12 11 11 9 9 7 6 6 8 6 6 5 7 7 9 8 10 9 10 10 10 11 11 13 13 13 13 13 13 14 15
14 15 16 17 21 21 19 18 18 16 13 12 12 10 9 7 7 7 7 6 9 1 3 4 6 7 8 10 11 12 11 12 11 12 12 12 12 11 12 12 12 12 14
14 16 16 20 24 22 19 17 17 14 11 10 11 10 10 10 8 7 6 6 6 6 6 7 8 9 9 10 12 13 12 10 11 11 11 12 11 10 11 11 13 13 13
15 17 17 22 24 21 18 18 14 12 12 11 12 13 11 8 6 6 9 11 10 10 7 8 9 8 9 10 11 12 11 10 10 11 10 11 11 11 12 13 14 14 15
16 17 18 23 24 21 17 15 15 15 13 14 13 11 8 7 7 9 11 11 13 10 8 7 6 8 7 11 11 11 11 11 11 10 11 13 14 15 13 15 16 16 20
15 18 18 24 24 21 17 16 15 15 16 13 12 8 8 9 10 11 13 14 14 13 11 9 8 8 9 11 10 12 10 8 11 11 12 11 12 15 17 18 18 19 19
16 18 18 22 24 20 19 15 15 15 13 13 13 10 9 9 10 13 14 16 15 15 16 13 10 10 10 11 10 10 11 9 9 10 11 12 14 15 18 19 19 18 17
18 19 19 23 25 20 20 18 16 15 15 14 12 12 11 11 10 11 14 15 15 15 15 14 12 12 11 11 10 8 9 9 8 11 12 14 15 17 17 16 16 16 16
19 20 21 24 26 24 19 18 17 16 15 14 12 12 12 12 11 12 13 12 14 13 13 12 11 11 9 9 8 8 8 6 10 13 16 15 15 14 13 13 14 14 13
23 23 24 26 27 26 21 19 17 17 16 15 13 12 13 13 14 13 12 12 12 12 12 11 11 11 10 8 6 5 7 7 9 13 15 14 13 12 12 12 11 10 10
30 26 27 28 28 26 23 21 20 18 17 15 15 14 13 14 15 14 12 10 9 9 9 10 9 9 9 9 7 4 4 7 9 11 9 11 10 10 10 10 9 8 7
29 29 28 29 29 27 25 23 21 20 17 17 16 16 14 14 13 12 11 8 7 6 6 6 7 7 7 9 8 6 5 4 7 7 7 7 6 7 6 6 6 6 5
Wind_Direction
92 78 76 78 90 93 93 96 98 98 97 101 114 116 115 113 111 109 105 100 98 96 101 108 108 105 92 76 73 117 165 176 162 149 142 139 135 121 107 89 76 73 66
102 87 83 85 98 101 99 101 103 102 102 103 108 111 116 113 111 108 103 96 91 90 93 96 103 99 86 71 71 101 141 220 149 155 157 145 133 110 84 68 68 61 53
99 102 95 98 107 106 107 109 109 103 103 101 105 108 105 100 91 86 79 70 72 89 93 91 85 82 86 82 93 107 110 148 165 144 160 145 124 113 81 68 62 54 57
105 111 102 108 111 111 113 113 113 108 103 103 103 100 97 84 72 68 66 61 66 73 82 83 93 119 113 97 109 127 142 163 152 141 153 133 122 118 87 78 74 66 53
105 106 111 119 119 117 113 112 114 108 103 106 105 97 89 80 73 68 63 65 62 81 91 107 123 109 112 131 124 120 157 150 152 150 153 124 143 126 104 88 82 66 61
112 113 117 126 121 118 110 115 116 110 112 107 100 93 90 89 82 78 71 74 86 95 113 123 115 105 93 93 101 106 123 129 132 124 108 119 125 107 101 81 78 71 64
127 124 126 129 125 116 111 116 117 114 117 115 104 97 97 96 90 79 76 76 87 102 109 110 105 103 95 89 93 98 103 106 118 117 129 142 108 108 80 68 62 60 60
137 136 133 136 129 116 114 116 118 115 118 115 109 102 100 98 93 85 83 87 92 101 105 101 98 94 92 90 91 94 98 96 112 111 100 120 99 82 58 41 55 60 62
144 145 136 139 131 119 121 123 126 128 126 122 113 107 106 99 93 93 90 88 89 90 88 86 84 84 87 88 86 94 95 87 92 111 103 104 88 78 70 57 60 54 52
154 144 136 138 131 128 132 133 136 137 132 126 119 114 111 101 96 92 91 87 81 82 85 85 82 78 80 81 84 87 77 62 91 105 100 94 85 78 75 72 70 55 52
165 145 139 141 137 141 141 142 143 140 135 128 121 119 117 108 98 93 90 89 83 85 85 80 77 68 72 74 73 75 71 69 79 86 98 96 96 86 79 78 70 64 55
169 148 148 145 147 150 149 148 148 143 136 131 120 121 121 115 108 99 95 88 82 82 87 85 75 102 61 58 71 78 79 74 76 83 93 92 90 80 82 85 82 73 58
168 153 158 153 157 155 153 149 146 143 139 132 123 125 125 123 118 108 94 84 73 72 77 83 94 100 73 82 78 83 86 82 81 84 86 84 77 73 72 71 69 71 71
169 159 166 158 160 155 157 149 147 143 137 133 123 131 127 126 124 110 95 83 81 74 76 78 81 86 93 74 91 80 82 87 85 86 85 86 83 77 72 71 78 74 67
172 166 170 163 160 159 159 150 149 145 139 142 138 133 129 130 116 108 96 88 94 88 81 77 76 84 95 98 97 89 80 83 89 90 84 82 81 78 78 75 68 68 61
177 173 172 167 160 162 161 157 155 151 146 137 133 130 130 123 111 115 105 93 93 14 97 105 116 113 113 111 103 101 95 83 86 94 93 87 82 77 78 74 73 72 74
187 180 175 170 164 164 163 163 159 161 154 143 135 135 129 124 115 114 118 96 91 88 94 107 116 119 110 114 114 112 114 105 95 86 85 89 90 88 80 72 65 65 72
195 186 181 175 169 168 165 163 164 156 154 144 136 132 125 119 120 121 116 107 99 86 94 105 115 111 112 115 116 116 120 111 101 100 94 80 79 83 86 84 86 85 84
199 190 186 179 176 171 168 165 173 165 155 142 139 139 129 137 136 124 114 105 97 98 97 108 112 114 112 119 122 115 114 114 108 105 101 97 97 95 95 98 95 92 85
205 195 190 185 181 176 173 164 171 164 159 146 141 134 126 130 131 123 119 113 108 104 101 99 118 120 115 122 124 118 115 113 111 111 108 105 103 106 104 98 93 88 82
207 199 193 189 187 184 181 176 175 180 171 146 137 126 128 134 135 127 127 120 113 106 95 92 107 117 118 118 118 120 124 119 112 114 116 117 111 103 100 98 88 78 69
207 199 196 191 189 187 186 184 175 173 168 153 145 139 142 147 145 131 123 117 119 113 111 110 110 101 110 112 109 105 105 119 119 121 127 119 115 108 100 90 80 69 56
211 201 197 194 194 197 194 190 182 176 171 164 158 149 150 156 152 139 130 125 116 117 117 123 121 106 102 93 86 91 77 83 126 130 126 120 112 105 93 74 59 50 40
213 207 199 197 197 201 200 193 190 189 181 172 167 164 157 156 156 148 139 132 128 124 123 123 126 128 127 114 98 83 97 97 111 129 124 119 98 81 66 58 48 39 36
213 209 204 202 200 202 202 196 197 194 189 179 178 172 164 164 161 158 150 141 142 136 129 127 129 127 134 138 136 134 129 102 117 124 115 102 85 72 58 49 51 43 36
220 217 209 205 204 201 203 201 202 198 192 188 187 180 177 172 174 172 164 166 156 143 143 139 139 142 142 140 153 162 154 132 126 125 115 92 70 65 57 55 47 50 25